[ hide orbit diagram ]
For accurate long-term ephemerides, please instead use our Horizons system.This orbit viewer was implemented using two-body methods, and hence should not be used for determining accurate long-term trajectories (over several years or decades) or planetary encounter circumstances.
Orbital Elements at Epoch 2459000.5 (2020-May-31.0) TDB
Reference: JPL 27 (heliocentric ecliptic J2000)
Element | Value | Uncertainty (1-sigma) | Units |
e | .0990051090066336 | 4.5145e-08 | |
a | 2.56699120845018 | 1.0889e-08 | au |
q | 2.3128459640385 | 1.1969e-07 | au |
i | 10.26101434737165 | 3.3549e-06 | deg |
node | 91.20653828458686 | 2.5198e-05 | deg |
peri | 225.1549528776696 | 3.344e-05 | deg |
M | 343.1246646994628 | 2.0557e-05 | deg |
tp | 2459070.918198232944 (2020-Aug-09.41819823) | 8.5632e-05 | TDB |
period | 1502.225046933013 4.11 | 9.5589e-06 2.617e-08 | d yr |
n | .2396445197974742 | 1.5249e-09 | deg/d |
Q | 2.82113645286186 | 1.1968e-08 | au |
|
| | Orbit Determination Parameters
Additional Information
|
[ show covariance matrix ]
Physical Parameter Table
Parameter |
Symbol |
Value |
Units |
Sigma |
Reference |
Notes |
absolute magnitude |
H |
14.1 |
|
n/a |
MPO435870 |
|
diameter |
diameter |
4.351 |
km |
1.301 |
urn:nasa:pds:neowise_diameters_albedos::2.0[mainbelt] (http://adsabs.harvard.edu/abs/2011ApJ...741...68M) |
|
geometric albedo |
albedo |
0.257 |
|
0.176 |
urn:nasa:pds:neowise_diameters_albedos::2.0[mainbelt] (http://adsabs.harvard.edu/abs/2011ApJ...741...68M) |
|
|
18400 (1992 WY3) Discovered 1992-Nov-25 by Seki, T. at Geisei |
Reference: 20001111/Numbers.arc | Last Updated: 2004-04-19 |
|
[ hide close-approach data ]
Close-Approach Data ...sorted by Date/Time (TDB)
|
Date/Time (TDB) |
Time Uncertainty (days_HH:MM) |
Body |
Nominal Distance (au) |
Minimum Distance (au) |
Maximum Distance (au) |
V-relative (km/s) |
V-infinity (km/s) |
JD (TDB) |
Time Uncertainty (minutes) |
Semi-major axis (km) |
Semi-minor axis (km) |
range-LOV angle (deg) |
N-sigma |
BP |
Orbit Ref. |
Reference |
Modified |
2095-Nov-08 11:46 |
00:04 |
Psych |
0.014588493400171 |
0.0145837169032586 |
0.0145932816967642 |
3.15978130317795 |
3.1597810407043 |
2486554.990616590 |
4.03591985232845 |
700.514815407117 |
30.660477547142 |
70.2794124500333 |
66913.4546976872 |
T |
27 |
CATAB v2.0f-lin.ifort 2020-Dec-18 03:08:00 |
2020-Dec-18 03:08 |
|
|